Regional Weather Roundup
Issued by NWS Jackson, KY

Home | Current Version | Previous Version | Text Only | Print | Product List | Glossary Off
Versions: 1 2 3 4 5 6 7 8 9 10 11 12 13 14 15 16 17 18 19 20 21 22 23 24 25 26 27 28 29 30 31 32 33 34 35 36 37 38 39 40 41 42 43 44 45 46 47 48 49 50

000
ASUS43 KJKL 232119
RWRJKL

EAST KENTUCKY HOURLY WEATHER ROUNDUP
NATIONAL WEATHER SERVICE JACKSON KY
500 PM EDT WED APR 23 2014

NOTE: "FAIR" INDICATES FEW OR NO CLOUDS BELOW 12,000 FEET WITH
NO SIGNIFICANT WEATHER AND/OR OBSTRUCTIONS TO VISIBILITY.

* THESE REPORTS ARE NOT UNDER NWS QUALITY CONTROL AND MAY NOT
  REPORT WEATHER SUCH AS PRECIPITATION AND FOG.

KYZ079-080-083-085-087-088-110-112-115-119-120-232200
...EASTERN KENTUCKY...

CITY           SKY/WX    TMP DP  RH WIND       PRES   REMARKS
JACKSON        SUNNY     63  27  25 VRB3      30.01F
LONDON         SUNNY     65  28  24 N9        30.00F
SOMERSET*      SUNNY     63  32  31 NE7       30.03F
MIDDLESBORO*   SUNNY     67  29  24 N8        29.98F
HARLAN APT*    CLEAR     66  21  18 NW6G17    29.98F
BLACK MTN*       N/A     54  23  30 N5          N/A
PIKEVILLE APT* SUNNY     61  28  29 N8        30.00F
BIG SANDY*     CLEAR     62  28  28 NW7       30.01F
ASHLAND*       SUNNY     63  34  34 NE6       30.01F
MOREHEAD APT*  CLEAR     59  32  36 NW9       30.05F
$$

KYZ035-036-041-042-044-050-067-078-099-232200
...CENTRAL KENTUCKY...

CITY           SKY/WX    TMP DP  RH WIND       PRES   REMARKS
MT STERLING*   SUNNY     57  34  41 CALM      30.05F
FLEMING/MASON* SUNNY     57  32  38 NW3       30.05F
RICHMOND*      SUNNY     59  32  36 N8        30.04F
LEXINGTON      SUNNY     61  34  36 E7        30.05F
FRANKFORT      SUNNY     62  29  28 N6        30.03F
$$

KYZ091>093-OHZ055-061-077-WVZ005-015-034-035-042-232200
...SOUTHERN OHIO/WEST VIRGINIA...

CITY           SKY/WX    TMP DP  RH WIND       PRES   REMARKS
COLUMBUS       MOSUNNY   57  32  38 N10G18    30.06F
DAYTON         MOSUNNY   58  33  39 NW7       30.07F
WILMINGTON     SUNNY     58  31  35 N9        30.05F
HUNTINGTON     SUNNY     61  31  32 N9G18     30.02F
CHARLESTON     MOSUNNY   61  31  32 NW9G18    30.00F
PINEVILLE*     SUNNY     64  32  30 MISG      30.02F
BECKLEY        SUNNY     56  27  32 NW14G22   29.97F
BLUEFIELD      SUNNY     60  23  24 W13G20    29.97S
$$

VAZ002-007-008-TNZ017-027-036-066-071-232200
...SOUTHWEST VIRGINIA/EAST TENNESSEE...

CITY           SKY/WX    TMP DP  RH WIND       PRES   REMARKS
WISE*          SUNNY     61  23  23 NW10G16   30.00F
ABINGDON*      SUNNY     64  22  19 N9G16     29.96F
BRISTOL        MOSUNNY   68  20  16 NW10      29.94F
KNOXVILLE      SUNNY     68  31  25 VRB6      29.96F
OAK RIDGE      SUNNY     71  27  19 VRB3      29.96F
CROSSVILLE     SUNNY     66  24  20 NE8       29.99F
NASHVILLE      MOSUNNY   70  34  26 N7        30.00F
$$

...KEY TO REMARKS...
VSB - VISIBILITY IN MILES
WCI - WIND CHILL INDEX
HX  - HEAT INDEX

$$



USA.gov is the U.S. government's official web portal to all federal, state and local government web resources and services.